Location: Unspecified
(0.0000°N, 0.0000°E)
Time: 22:38:49
(UTC+00:00)

Vanguard 1 - Pass Details

Date: 10 February 2018
Orbit: 650 x 3833 km, 34.3° (Epoch: 21 May)

Event Time Altitude Azimuth Distance (km) Brightness Sun altitude
Exits shadow 03:29:41 51° 222° (SW) 2,805 12.0 -39.6°
Maximum altitude 03:30:41 52° 210° (SSW) 2,870 12.1 -39.3°
Drops below altitude 10° 03:49:28 10° 139° (SE) 6,550 14.8 -34.9°
Sets 03:55:34 0° 134° (SE) 7,830 15.5 -33.4°
